Time,TemperatureF,DewpointF,PressureIn,WindDirection,WindDirectionDegrees,WindSpeedMPH,WindSpeedGustMPH,Humidity,HourlyPrecipIn,Conditions,Clouds,dailyrainin,SoftwareType,DateUTC
2013-01-24 00:00:00,48.5,25.9,30.05,South,174,0.0,0.0,41,0.00,CLR,,0.00,WeatherDisplay:10.37,2013-01-24 08:00:00,
2013-01-24 00:10:00,47.9,27.6,30.05,South,174,0.0,0.0,45,0.00,CLR,,0.00,WeatherDisplay:10.37,2013-01-24 08:10:00,
2013-01-24 00:20:00,47.4,24.9,30.04,South,174,0.0,3.0,41,0.00,CLR,,0.00,WeatherDisplay:10.37,2013-01-24 08:20:00,
2013-01-24 00:30:00,47.3,26.5,30.04,South,174,0.0,4.0,44,0.00,CLR,,0.00,WeatherDisplay:10.37,2013-01-24 08:30:00,
2013-01-24 00:40:00,47.1,26.3,30.05,South,174,0.0,0.0,44,0.00,CLR,,0.00,WeatherDisplay:10.37,2013-01-24 08:40:00,
2013-01-24 00:50:00,47.4,26.0,30.04,South,174,1.0,5.0,43,0.00,CLR,,0.00,WeatherDisplay:10.37,2013-01-24 08:50:00,
2013-01-24 01:00:00,47.6,28.9,30.04,South,174,2.0,4.0,48,0.00,CLR,,0.00,WeatherDisplay:10.37,2013-01-24 09:00:00,
2013-01-24 01:05:00,47.6,29.4,30.04,South,174,0.0,3.0,49,0.00,CLR,,0.00,WeatherDisplay:10.37,2013-01-24 09:05:00,
2013-01-24 01:10:00,47.8,30.5,30.04,South,175,0.0,5.0,51,0.00,CLR,,0.00,WeatherDisplay:10.37,2013-01-24 09:10:00,
2013-01-24 01:20:00,48.3,31.9,30.04,South,175,0.0,1.0,53,0.00,CLR,,0.00,WeatherDisplay:10.37,2013-01-24 09:20:00,
2013-01-24 01:30:00,48.8,33.3,30.03,South,175,0.0,0.0,55,0.00,CLR,,0.00,WeatherDisplay:10.37,2013-01-24 09:30:00,
2013-01-24 01:40:00,48.2,32.8,30.03,South,175,0.0,0.0,55,0.00,CLR,,0.00,WeatherDisplay:10.37,2013-01-24 09:40:00,
2013-01-24 01:50:00,48.5,32.6,30.03,South,175,0.0,0.0,54,0.00,CLR,,0.00,WeatherDisplay:10.37,2013-01-24 09:50:00,
2013-01-24 02:00:00,48.5,33.5,30.03,South,175,0.0,0.0,56,0.00,CLR,,0.00,WeatherDisplay:10.37,2013-01-24 10:00:00,
2013-01-24 02:05:00,48.3,33.3,30.03,South,175,0.0,0.0,56,0.00,CLR,,0.00,WeatherDisplay:10.37,2013-01-24 10:05:00,
2013-01-24 02:10:00,48.2,32.8,30.03,South,175,1.0,3.0,55,0.00,CLR,,0.00,WeatherDisplay:10.37,2013-01-24 10:10:00,
2013-01-24 02:20:00,48.2,32.8,30.03,South,174,0.0,2.0,55,0.00,CLR,,0.00,WeatherDisplay:10.37,2013-01-24 10:20:00,
2013-01-24 02:30:00,48.8,31.9,30.03,South,174,0.0,0.0,52,0.00,CLR,,0.00,WeatherDisplay:10.37,2013-01-24 10:30:00,
2013-01-24 02:40:00,48.9,32.5,30.03,South,174,0.0,3.0,53,0.00,CLR,,0.00,WeatherDisplay:10.37,2013-01-24 10:40:00,
2013-01-24 02:50:00,48.7,30.3,30.03,South,174,0.0,4.0,49,0.00,CLR,,0.00,WeatherDisplay:10.37,2013-01-24 10:50:00,
2013-01-24 03:00:00,48.5,30.7,30.03,South,174,0.0,0.0,50,0.00,CLR,,0.00,WeatherDisplay:10.37,2013-01-24 11:00:00,
2013-01-24 03:05:00,48.2,30.9,30.04,South,174,0.0,0.0,51,0.00,CLR,,0.00,WeatherDisplay:10.37,2013-01-24 11:05:00,
2013-01-24 03:10:00,47.8,32.0,30.04,South,174,0.0,0.0,54,0.00,CLR,,0.00,WeatherDisplay:10.37,2013-01-24 11:10:00,
2013-01-24 03:20:00,47.2,32.3,30.04,South,174,0.0,0.0,56,0.00,CLR,,0.00,WeatherDisplay:10.37,2013-01-24 11:20:00,
2013-01-24 03:30:00,46.2,35.8,30.04,South,174,0.0,0.0,67,0.01,,,0.01,WeatherDisplay:10.37,2013-01-24 11:30:00,
2013-01-24 03:40:00,45.5,38.0,30.04,South,174,0.0,0.0,75,0.00,,,0.01,WeatherDisplay:10.37,2013-01-24 11:40:00,
2013-01-24 03:50:00,45.2,38.4,30.04,South,174,0.0,0.0,77,0.00,,,0.01,WeatherDisplay:10.37,2013-01-24 11:50:00,
2013-01-24 04:00:00,45.4,39.2,30.04,South,174,0.0,0.0,79,0.00,,,0.01,WeatherDisplay:10.37,2013-01-24 12:00:00,
2013-01-24 04:05:00,45.5,39.4,30.04,South,174,0.0,0.0,79,0.00,,,0.01,WeatherDisplay:10.37,2013-01-24 12:05:00,
2013-01-24 04:10:00,45.7,39.9,30.04,South,174,0.0,0.0,80,0.01,,,0.02,WeatherDisplay:10.37,2013-01-24 12:10:00,
2013-01-24 04:20:00,45.8,40.6,30.03,South,174,0.0,0.0,82,0.00,,,0.02,WeatherDisplay:10.37,2013-01-24 12:20:00,
2013-01-24 04:30:00,46.0,41.1,30.03,South,174,0.0,0.0,83,0.00,,,0.03,WeatherDisplay:10.37,2013-01-24 12:30:00,
2013-01-24 04:40:00,46.1,41.5,30.03,South,174,0.0,0.0,84,0.00,,,0.03,WeatherDisplay:10.37,2013-01-24 12:40:00,
2013-01-24 04:50:00,46.2,41.6,30.03,South,174,0.0,2.0,84,0.00,,,0.03,WeatherDisplay:10.37,2013-01-24 12:50:00,
2013-01-24 05:00:00,46.1,41.5,30.04,South,174,0.0,0.0,84,0.00,,,0.03,WeatherDisplay:10.37,2013-01-24 13:00:00,
2013-01-24 05:05:00,46.1,41.5,30.04,South,174,0.0,0.0,84,0.00,,,0.03,WeatherDisplay:10.37,2013-01-24 13:05:00,
2013-01-24 05:10:00,46.1,41.8,30.03,South,174,0.0,0.0,85,0.00,,,0.03,WeatherDisplay:10.37,2013-01-24 13:10:00,
2013-01-24 05:20:00,46.2,41.6,30.04,South,174,0.0,0.0,84,0.00,,,0.03,WeatherDisplay:10.37,2013-01-24 13:20:00,
2013-01-24 05:30:00,46.2,41.9,30.05,South,174,0.0,0.0,85,0.00,CLR,,0.03,WeatherDisplay:10.37,2013-01-24 13:30:00,
2013-01-24 05:40:00,46.1,42.1,30.05,South,174,0.0,0.0,86,0.00,CLR,,0.03,WeatherDisplay:10.37,2013-01-24 13:40:00,
2013-01-24 05:50:00,46.1,42.1,30.05,South,174,0.0,0.0,86,0.00,CLR,,0.03,WeatherDisplay:10.37,2013-01-24 13:50:00,
2013-01-24 06:00:00,46.0,42.6,30.05,South,174,0.0,0.0,88,0.00,,,0.04,WeatherDisplay:10.37,2013-01-24 14:00:00,
2013-01-24 06:05:00,45.8,42.5,30.06,South,174,0.0,0.0,88,0.00,,,0.04,WeatherDisplay:10.37,2013-01-24 14:05:00,
2013-01-24 06:10:00,45.8,42.4,30.06,South,174,0.0,0.0,88,0.00,,,0.04,WeatherDisplay:10.37,2013-01-24 14:10:00,
2013-01-24 06:20:00,45.8,42.7,30.06,South,174,0.0,0.0,89,0.00,,,0.04,WeatherDisplay:10.37,2013-01-24 14:20:00,
2013-01-24 06:30:00,46.0,42.9,30.06,South,174,0.0,0.0,89,0.00,,,0.04,WeatherDisplay:10.37,2013-01-24 14:30:00,
2013-01-24 06:40:00,45.8,42.7,30.06,South,174,0.0,0.0,89,0.00,,,0.04,WeatherDisplay:10.37,2013-01-24 14:40:00,
2013-01-24 06:50:00,46.0,43.2,30.06,South,174,0.0,0.0,90,0.00,RA,,0.05,WeatherDisplay:10.37,2013-01-24 14:50:00,
2013-01-24 07:00:00,46.1,43.3,30.07,South,174,0.0,0.0,90,0.00,RA,,0.05,WeatherDisplay:10.37,2013-01-24 15:00:00,
2013-01-24 07:05:00,46.1,43.3,30.07,South,174,0.0,0.0,90,0.01,RA,,0.06,WeatherDisplay:10.37,2013-01-24 15:05:00,
2013-01-24 07:10:00,46.1,43.3,30.07,South,174,0.0,0.0,90,0.00,RA,,0.06,WeatherDisplay:10.37,2013-01-24 15:10:00,
2013-01-24 07:20:00,46.1,43.6,30.07,South,174,0.0,0.0,91,0.00,RA,,0.06,WeatherDisplay:10.37,2013-01-24 15:20:00,
2013-01-24 07:30:00,46.2,43.7,30.07,South,174,0.0,0.0,91,0.01,RA,,0.07,WeatherDisplay:10.37,2013-01-24 15:30:00,
2013-01-24 07:40:00,46.2,43.7,30.08,South,174,0.0,0.0,91,0.00,RA,,0.07,WeatherDisplay:10.37,2013-01-24 15:40:00,
2013-01-24 07:50:00,46.4,43.9,30.08,South,174,0.0,0.0,91,0.00,RA,,0.07,WeatherDisplay:10.37,2013-01-24 15:50:00,
2013-01-24 08:00:00,46.5,44.0,30.08,South,174,0.0,0.0,91,0.00,RA,,0.07,WeatherDisplay:10.37,2013-01-24 16:00:00,
2013-01-24 08:05:00,46.5,44.0,30.08,South,174,0.0,0.0,91,0.00,RA,,0.07,WeatherDisplay:10.37,2013-01-24 16:05:00,
2013-01-24 08:10:00,46.7,44.5,30.08,South,174,0.0,0.0,92,0.00,RA,,0.07,WeatherDisplay:10.37,2013-01-24 16:10:00,
2013-01-24 08:20:00,47.0,44.8,30.08,South,174,0.0,0.0,92,0.00,RA,,0.08,WeatherDisplay:10.37,2013-01-24 16:20:00,
2013-01-24 08:30:00,47.3,45.1,30.08,South,174,0.0,0.0,92,0.00,RA,,0.08,WeatherDisplay:10.37,2013-01-24 16:30:00,
2013-01-24 08:40:00,47.7,45.5,30.08,South,174,0.0,0.0,92,0.00,RA,,0.08,WeatherDisplay:10.37,2013-01-24 16:40:00,
2013-01-24 08:50:00,48.2,46.0,30.09,South,174,0.0,0.0,92,0.00,RA,,0.08,WeatherDisplay:10.37,2013-01-24 16:50:00,
2013-01-24 09:00:00,48.8,46.6,30.09,South,174,0.0,0.0,92,0.00,RA,,0.08,WeatherDisplay:10.37,2013-01-24 17:00:00,
2013-01-24 09:05:00,48.9,46.4,30.09,South,174,0.0,0.0,91,0.00,RA,,0.08,WeatherDisplay:10.37,2013-01-24 17:05:00,
2013-01-24 09:10:00,49.1,46.6,30.10,South,174,0.0,0.0,91,0.00,RA,,0.08,WeatherDisplay:10.37,2013-01-24 17:10:00,
2013-01-24 09:20:00,49.2,46.7,30.11,South,174,0.0,0.0,91,0.00,RA,,0.08,WeatherDisplay:10.37,2013-01-24 17:20:00,
2013-01-24 09:30:00,49.6,47.1,30.11,South,174,0.0,0.0,91,0.00,RA,,0.08,WeatherDisplay:10.37,2013-01-24 17:30:00,
2013-01-24 09:40:00,49.8,47.0,30.12,South,174,0.0,0.0,90,0.00,RA,,0.08,WeatherDisplay:10.37,2013-01-24 17:40:00,
2013-01-24 09:50:00,49.9,46.8,30.12,South,174,0.0,0.0,89,0.00,RA,,0.08,WeatherDisplay:10.37,2013-01-24 17:50:00,
2013-01-24 10:00:00,50.2,47.1,30.13,South,174,0.0,0.0,89,0.00,RA,,0.08,WeatherDisplay:10.37,2013-01-24 18:00:00,
2013-01-24 10:10:00,50.4,47.3,30.13,South,174,0.0,0.0,89,0.00,RA,,0.08,WeatherDisplay:10.37,2013-01-24 18:10:00,
2013-01-24 10:20:00,50.5,47.4,30.14,South,174,0.0,0.0,89,0.00,RA,,0.08,WeatherDisplay:10.37,2013-01-24 18:20:00,
2013-01-24 10:30:00,50.7,47.9,30.13,South,174,0.0,0.0,90,0.01,RA,,0.09,WeatherDisplay:10.37,2013-01-24 18:30:00,
2013-01-24 10:40:00,50.8,48.0,30.13,South,174,0.0,0.0,90,0.00,RA,,0.09,WeatherDisplay:10.37,2013-01-24 18:40:00,
2013-01-24 10:50:00,51.0,48.2,30.13,South,174,0.0,0.0,90,0.00,RA,,0.09,WeatherDisplay:10.37,2013-01-24 18:50:00,
2013-01-24 11:00:00,51.0,48.5,30.12,South,174,0.0,0.0,91,0.00,RA,,0.10,WeatherDisplay:10.37,2013-01-24 19:00:00,
2013-01-24 11:05:00,50.8,48.3,30.13,South,174,0.0,0.0,91,0.01,RA,,0.11,WeatherDisplay:10.37,2013-01-24 19:05:00,
2013-01-24 11:10:00,50.7,48.2,30.13,South,174,0.0,0.0,91,0.00,RA,,0.11,WeatherDisplay:10.37,2013-01-24 19:10:00,
2013-01-24 11:20:00,50.7,48.2,30.13,South,174,0.0,0.0,91,0.01,RA,,0.13,WeatherDisplay:10.37,2013-01-24 19:20:00,
2013-01-24 11:30:00,50.5,48.0,30.12,SE,143,0.0,0.0,91,0.00,RA,,0.14,WeatherDisplay:10.37,2013-01-24 19:30:00,
2013-01-24 11:40:00,50.4,48.2,30.12,East,98,0.0,0.0,92,0.01,RA,,0.15,WeatherDisplay:10.37,2013-01-24 19:40:00,
2013-01-24 11:50:00,50.2,48.0,30.12,East,98,0.0,0.0,92,0.00,RA,,0.15,WeatherDisplay:10.37,2013-01-24 19:50:00,
2013-01-24 12:00:00,50.2,48.0,30.12,East,98,0.0,0.0,92,0.00,RA,,0.15,WeatherDisplay:10.37,2013-01-24 20:00:00,
2013-01-24 12:05:00,50.2,48.0,30.12,East,98,0.0,0.0,92,0.00,RA,,0.15,WeatherDisplay:10.37,2013-01-24 20:05:00,
2013-01-24 12:10:00,50.4,48.2,30.12,East,98,0.0,0.0,92,0.00,RA,,0.15,WeatherDisplay:10.37,2013-01-24 20:10:00,
2013-01-24 12:20:00,50.2,48.0,30.12,East,98,0.0,0.0,92,0.00,RA,,0.15,WeatherDisplay:10.37,2013-01-24 20:20:00,
2013-01-24 12:30:00,50.4,48.2,30.10,East,98,0.0,0.0,92,0.00,RA,,0.15,WeatherDisplay:10.37,2013-01-24 20:30:00,
2013-01-24 12:40:00,50.5,48.3,30.09,East,98,0.0,0.0,92,0.00,RA,,0.15,WeatherDisplay:10.37,2013-01-24 20:40:00,
2013-01-24 12:50:00,50.6,48.4,30.09,East,98,0.0,0.0,92,0.00,RA,,0.15,WeatherDisplay:10.37,2013-01-24 20:50:00,
2013-01-24 13:00:00,50.4,48.2,30.09,East,98,0.0,0.0,92,0.00,RA,,0.15,WeatherDisplay:10.37,2013-01-24 21:00:00,
2013-01-24 13:05:00,50.7,48.5,30.09,East,98,0.0,0.0,92,0.00,RA,,0.15,WeatherDisplay:10.37,2013-01-24 21:05:00,
2013-01-24 13:10:00,50.5,48.0,30.08,East,98,0.0,0.0,91,0.00,RA,,0.15,WeatherDisplay:10.37,2013-01-24 21:10:00,
2013-01-24 13:20:00,50.4,47.9,30.09,East,98,0.0,0.0,91,0.00,RA,,0.15,WeatherDisplay:10.37,2013-01-24 21:20:00,
2013-01-24 13:30:00,50.6,48.1,30.08,East,98,0.0,0.0,91,0.00,RA,,0.15,WeatherDisplay:10.37,2013-01-24 21:30:00,
2013-01-24 13:40:00,50.7,47.9,30.08,East,98,0.0,0.0,90,0.00,RA,,0.15,WeatherDisplay:10.37,2013-01-24 21:40:00,
2013-01-24 13:50:00,51.0,48.2,30.08,East,98,0.0,0.0,90,0.00,RA,,0.15,WeatherDisplay:10.37,2013-01-24 21:50:00,
2013-01-24 14:00:00,51.3,48.2,30.08,East,98,0.0,0.0,89,0.00,RA,,0.15,WeatherDisplay:10.37,2013-01-24 22:00:00,
2013-01-24 14:10:00,51.3,48.2,30.08,East,98,0.0,0.0,89,0.00,RA,,0.15,WeatherDisplay:10.37,2013-01-24 22:10:00,
2013-01-24 14:20:00,51.4,48.3,30.08,East,98,0.0,0.0,89,0.00,RA,,0.15,WeatherDisplay:10.37,2013-01-24 22:20:00,
2013-01-24 14:30:00,51.5,48.1,30.08,East,98,0.0,0.0,88,0.00,RA,,0.15,WeatherDisplay:10.37,2013-01-24 22:30:00,
2013-01-24 14:40:00,51.7,48.3,30.08,East,98,0.0,0.0,88,0.00,RA,,0.15,WeatherDisplay:10.37,2013-01-24 22:40:00,
2013-01-24 14:50:00,51.9,48.2,30.09,East,98,0.0,0.0,87,0.00,RA,,0.15,WeatherDisplay:10.37,2013-01-24 22:50:00,
2013-01-24 15:00:00,52.0,47.9,30.08,East,98,0.0,0.0,86,0.00,RA,,0.15,WeatherDisplay:10.37,2013-01-24 23:00:00,
2013-01-24 15:05:00,52.0,47.9,30.08,East,98,0.0,0.0,86,0.00,RA,,0.15,WeatherDisplay:10.37,2013-01-24 23:05:00,
2013-01-24 15:10:00,52.0,47.6,30.08,East,98,0.0,0.0,85,0.00,RA,,0.15,WeatherDisplay:10.37,2013-01-24 23:10:00,
2013-01-24 15:20:00,52.3,47.6,30.09,East,98,0.0,0.0,84,0.00,RA,,0.15,WeatherDisplay:10.37,2013-01-24 23:20:00,
2013-01-24 15:30:00,52.3,47.3,30.09,East,98,0.0,0.0,83,0.00,RA,,0.15,WeatherDisplay:10.37,2013-01-24 23:30:00,
2013-01-24 15:40:00,52.5,47.2,30.08,East,98,0.0,0.0,82,0.00,RA,,0.15,WeatherDisplay:10.37,2013-01-24 23:40:00,
2013-01-24 15:50:00,52.5,46.8,30.09,East,98,0.0,0.0,81,0.00,RA,,0.15,WeatherDisplay:10.37,2013-01-24 23:50:00,
2013-01-24 16:00:00,52.6,46.6,30.09,East,98,0.0,0.0,80,0.00,RA,,0.15,WeatherDisplay:10.37,2013-01-25 00:00:00,
2013-01-24 16:05:00,52.8,46.8,30.09,East,98,0.0,0.0,80,0.00,RA,,0.15,WeatherDisplay:10.37,2013-01-25 00:05:00,
2013-01-24 16:10:00,52.9,47.2,30.09,East,98,0.0,0.0,81,0.00,RA,,0.15,WeatherDisplay:10.37,2013-01-25 00:10:00,
2013-01-24 16:20:00,52.8,46.8,30.10,East,98,0.0,0.0,80,0.00,RA,,0.15,WeatherDisplay:10.37,2013-01-25 00:20:00,
2013-01-24 16:30:00,52.8,47.2,30.10,East,98,0.0,0.0,81,0.00,RA,,0.15,WeatherDisplay:10.37,2013-01-25 00:30:00,
2013-01-24 16:40:00,52.8,46.8,30.10,East,98,0.0,0.0,80,0.00,RA,,0.15,WeatherDisplay:10.37,2013-01-25 00:40:00,
2013-01-24 16:50:00,52.9,47.2,30.10,East,98,0.0,0.0,81,0.00,RA,,0.15,WeatherDisplay:10.37,2013-01-25 00:50:00,
2013-01-24 17:00:00,52.9,47.2,30.10,East,98,0.0,0.0,81,0.00,RA,,0.15,WeatherDisplay:10.37,2013-01-25 01:00:00,
2013-01-24 17:05:00,52.8,47.1,30.10,East,98,0.0,0.0,81,0.00,RA,,0.15,WeatherDisplay:10.37,2013-01-25 01:05:00,
2013-01-24 17:10:00,52.8,47.5,30.10,East,98,0.0,0.0,82,0.00,RA,,0.15,WeatherDisplay:10.37,2013-01-25 01:10:00,
2013-01-24 17:20:00,52.8,47.5,30.11,East,98,0.0,0.0,82,0.00,RA,,0.15,WeatherDisplay:10.37,2013-01-25 01:20:00,
2013-01-24 17:30:00,52.9,47.6,30.10,East,98,0.0,0.0,82,0.00,RA,,0.15,WeatherDisplay:10.37,2013-01-25 01:30:00,
2013-01-24 17:40:00,52.6,47.6,30.11,East,98,0.0,0.0,83,0.00,RA,,0.15,WeatherDisplay:10.37,2013-01-25 01:40:00,
2013-01-24 17:50:00,52.5,47.8,30.11,East,98,0.0,0.0,84,0.00,RA,,0.15,WeatherDisplay:10.37,2013-01-25 01:50:00,
2013-01-24 18:00:00,52.3,47.9,30.11,East,98,0.0,0.0,85,0.00,RA,,0.15,WeatherDisplay:10.37,2013-01-25 02:00:00,
2013-01-24 18:05:00,52.2,47.8,30.11,East,98,0.0,0.0,85,0.00,RA,,0.15,WeatherDisplay:10.37,2013-01-25 02:05:00,
2013-01-24 18:10:00,52.2,48.1,30.12,East,98,0.0,0.0,86,0.00,RA,,0.15,WeatherDisplay:10.37,2013-01-25 02:10:00,
2013-01-24 18:20:00,52.2,48.1,30.12,East,98,0.0,0.0,86,0.00,RA,,0.15,WeatherDisplay:10.37,2013-01-25 02:20:00,
2013-01-24 18:30:00,52.0,48.3,30.13,East,98,0.0,0.0,87,0.00,RA,,0.15,WeatherDisplay:10.37,2013-01-25 02:30:00,
2013-01-24 18:40:00,51.8,48.4,30.13,East,98,0.0,0.0,88,0.00,RA,,0.15,WeatherDisplay:10.37,2013-01-25 02:40:00,
2013-01-24 18:50:00,51.6,48.2,30.13,East,98,0.0,0.0,88,0.00,RA,,0.15,WeatherDisplay:10.37,2013-01-25 02:50:00,
2013-01-24 19:00:00,51.4,48.0,30.14,East,98,0.0,0.0,88,0.00,RA,,0.15,WeatherDisplay:10.37,2013-01-25 03:00:00,
2013-01-24 19:05:00,51.4,48.0,30.13,East,98,0.0,0.0,88,0.00,RA,,0.15,WeatherDisplay:10.37,2013-01-25 03:05:00,
2013-01-24 19:10:00,51.4,48.3,30.13,East,98,0.0,0.0,89,0.00,RA,,0.15,WeatherDisplay:10.37,2013-01-25 03:10:00,
2013-01-24 19:20:00,51.3,48.2,30.12,East,98,0.0,0.0,89,0.00,RA,,0.15,WeatherDisplay:10.37,2013-01-25 03:20:00,
2013-01-24 19:30:00,51.3,48.2,30.12,East,98,0.0,0.0,89,0.00,RA,,0.15,WeatherDisplay:10.37,2013-01-25 03:30:00,
2013-01-24 19:40:00,51.1,48.0,30.12,East,98,0.0,0.0,89,0.00,RA,,0.15,WeatherDisplay:10.37,2013-01-25 03:40:00,
2013-01-24 19:50:00,51.0,47.9,30.13,East,98,0.0,0.0,89,0.00,RA,,0.15,WeatherDisplay:10.37,2013-01-25 03:50:00,
2013-01-24 20:00:00,51.0,47.9,30.13,East,98,0.0,0.0,89,0.00,RA,,0.15,WeatherDisplay:10.37,2013-01-25 04:00:00,
2013-01-24 20:05:00,50.8,47.7,30.13,East,98,0.0,0.0,89,0.00,RA,,0.15,WeatherDisplay:10.37,2013-01-25 04:05:00,
2013-01-24 20:10:00,50.8,47.7,30.13,East,98,0.0,0.0,89,0.00,RA,,0.15,WeatherDisplay:10.37,2013-01-25 04:10:00,
2013-01-24 20:20:00,50.8,47.7,30.13,East,98,0.0,0.0,89,0.00,RA,,0.15,WeatherDisplay:10.37,2013-01-25 04:20:00,
2013-01-24 20:30:00,50.8,47.7,30.12,East,98,0.0,0.0,89,0.00,RA,,0.15,WeatherDisplay:10.37,2013-01-25 04:30:00,
2013-01-24 20:40:00,50.7,47.6,30.12,East,98,0.0,0.0,89,0.00,RA,,0.15,WeatherDisplay:10.37,2013-01-25 04:40:00,
2013-01-24 20:50:00,50.7,47.9,30.12,East,98,0.0,0.0,90,0.00,RA,,0.15,WeatherDisplay:10.37,2013-01-25 04:50:00,
2013-01-24 21:05:00,50.8,47.9,30.13,East,98,0.0,0.0,90,0.00,RA,,0.15,WeatherDisplay:10.37,2013-01-25 05:05:00,
2013-01-24 21:10:00,50.8,48.0,30.13,East,98,0.0,0.0,90,0.00,RA,,0.15,WeatherDisplay:10.37,2013-01-25 05:10:00,
2013-01-24 21:20:00,50.8,48.0,30.13,East,98,0.0,0.0,90,0.00,RA,,0.15,WeatherDisplay:10.37,2013-01-25 05:20:00,
2013-01-24 21:30:00,50.8,48.0,30.13,East,98,0.0,0.0,90,0.00,RA,,0.15,WeatherDisplay:10.37,2013-01-25 05:30:00,
2013-01-24 21:40:00,50.8,48.0,30.14,East,98,0.0,0.0,90,0.00,RA,,0.15,WeatherDisplay:10.37,2013-01-25 05:40:00,
2013-01-24 21:50:00,50.8,48.0,30.14,East,98,0.0,0.0,90,0.00,RA,,0.15,WeatherDisplay:10.37,2013-01-25 05:50:00,
2013-01-24 22:00:00,50.7,47.9,30.13,East,98,0.0,0.0,90,0.00,RA,,0.15,WeatherDisplay:10.37,2013-01-25 06:00:00,
2013-01-24 22:05:00,50.7,47.9,30.13,East,98,0.0,0.0,90,0.00,RA,,0.15,WeatherDisplay:10.37,2013-01-25 06:05:00,
2013-01-24 22:10:00,50.7,47.9,30.13,East,98,0.0,0.0,90,0.00,RA,,0.15,WeatherDisplay:10.37,2013-01-25 06:10:00,
2013-01-24 22:20:00,50.7,47.9,30.13,East,98,0.0,0.0,90,0.00,RA,,0.15,WeatherDisplay:10.37,2013-01-25 06:20:00,
2013-01-24 22:30:00,50.7,47.9,30.13,East,98,0.0,0.0,90,0.00,RA,,0.15,WeatherDisplay:10.37,2013-01-25 06:30:00,
2013-01-24 22:40:00,50.5,48.0,30.14,East,98,0.0,0.0,91,0.00,RA,,0.15,WeatherDisplay:10.37,2013-01-25 06:40:00,
2013-01-24 22:50:00,50.4,47.9,30.15,East,98,0.0,0.0,91,0.00,RA,,0.15,WeatherDisplay:10.37,2013-01-25 06:50:00,
2013-01-24 23:00:00,50.4,47.9,30.15,East,98,0.0,0.0,91,0.00,RA,,0.15,WeatherDisplay:10.37,2013-01-25 07:00:00,
2013-01-24 23:05:00,50.4,47.9,30.14,East,98,0.0,0.0,91,0.00,RA,,0.15,WeatherDisplay:10.37,2013-01-25 07:05:00,
2013-01-24 23:10:00,50.4,47.9,30.14,East,98,0.0,0.0,91,0.00,RA,,0.15,WeatherDisplay:10.37,2013-01-25 07:10:00,
2013-01-24 23:20:00,50.2,47.7,30.14,East,98,0.0,0.0,91,0.00,RA,,0.15,WeatherDisplay:10.37,2013-01-25 07:20:00,
2013-01-24 23:30:00,50.2,47.7,30.14,East,98,0.0,0.0,91,0.00,RA,,0.15,WeatherDisplay:10.37,2013-01-25 07:30:00,
2013-01-24 23:40:00,50.2,47.7,30.14,East,98,0.0,0.0,91,0.00,RA,,0.15,WeatherDisplay:10.37,2013-01-25 07:40:00,
2013-01-24 23:50:00,50.2,48.0,30.14,East,98,0.0,0.0,92,0.00,RA,,0.15,WeatherDisplay:10.37,2013-01-25 07:50:00,